Temp
96 95 94 92 91 92 90 89 89 89 86 86 88 89 89 88 86 85 85 84 84 83 84 84 84 84 84 83 84 84 83 82 82 81 80 80 80 79 79 79 80 78 79 77 79 79 80 80 80 80 80 80 80 80 79 80 79 79 79 78 78 78 77
94 94 94 93 92 91 90 90 88 88 87 80 76 82 89 86 85 85 84 84 84 83 83 84 84 84 84 83 83 84 83 83 83 82 81 79 80 79 79 79 78 79 79 79 79 80 80 81 81 80 80 80 79 80 80 79 79 79 78 78 77 77 77
94 94 94 93 92 91 88 90 88 87 85 80 80 83 87 85 85 85 84 84 84 83 84 84 84 84 84 84 84 83 83 83 83 81 80 80 81 82 82 80 80 79 80 81 80 80 81 80 81 80 80 79 79 79 79 79 79 79 78 78 77 77 76
91 93 94 93 91 90 90 89 88 86 87 85 84 86 87 84 86 85 85 85 84 83 83 83 84 84 84 84 83 83 82 82 82 82 83 82 82 81 80 80 79 80 79 80 81 81 82 80 80 80 80 79 79 79 79 79 79 78 78 78 77 77 77
91 92 91 92 90 89 89 88 88 87 88 90 87 85 86 86 87 86 86 86 86 84 84 85 86 85 84 84 84 84 83 82 81 82 82 82 82 81 81 81 80 80 80 81 81 80 80 79 80 79 79 79 79 79 79 79 79 79 78 78 76 77 76
89 90 90 91 92 92 91 91 91 92 91 91 88 87 89 90 90 90 87 86 85 86 85 85 84 84 83 84 84 83 83 83 83 82 82 81 81 80 80 80 81 80 80 80 81 80 80 79 79 79 79 80 80 79 79 79 79 79 78 78 77 76 75
91 89 89 91 89 90 89 90 89 88 91 92 89 89 92 92 91 90 89 88 87 84 85 85 85 84 84 83 83 83 82 82 82 82 82 82 81 80 80 81 81 81 80 79 79 80 79 79 78 78 78 79 78 78 78 77 77 78 78 77 76 76 76
93 92 92 93 92 92 91 88 82 84 86 89 90 93 93 92 91 91 90 90 89 89 88 87 84 83 83 83 83 83 83 83 83 82 82 82 81 80 80 81 80 80 80 79 79 80 80 79 79 79 78 79 78 77 78 77 77 78 78 76 76 76 77
95 93 94 97 96 94 91 80 80 84 86 87 87 87 88 89 90 90 90 90 89 88 88 89 87 85 83 82 82 82 83 83 82 82 82 81 81 82 83 83 80 79 78 79 81 80 80 80 80 78 78 77 77 77 77 77 77 77 76 75 76 76 76
93 91 92 96 96 98 88 87 84 81 81 84 84 84 85 86 88 90 91 91 91 89 88 89 88 87 84 83 83 83 82 82 82 83 83 83 81 82 83 84 83 81 80 81 81 80 80 80 78 78 77 77 77 77 77 78 77 75 75 75 75 74 74
93 94 90 93 92 90 84 84 84 82 84 83 83 85 86 87 88 90 88 91 91 90 90 89 87 87 85 84 84 83 82 82 82 82 82 82 85 84 85 86 86 83 81 80 80 80 79 79 80 78 77 78 78 77 77 78 75 74 74 75 75 74 75
89 90 89 90 90 88 84 82 82 83 83 83 84 86 85 86 87 88 88 88 91 90 89 86 88 87 86 86 84 82 82 82 82 83 82 82 83 83 84 84 82 81 83 81 81 81 81 79 79 78 77 78 78 77 77 77 76 75 76 76 76 75 75
91 89 90 91 89 90 87 83 83 83 84 85 87 86 86 87 87 87 84 85 89 88 86 84 85 83 84 86 85 82 82 82 82 82 83 82 82 82 83 84 85 86 83 82 82 82 81 80 79 79 78 78 78 78 78 77 77 77 76 75 74 74 73
90 91 91 90 90 89 87 85 83 83 83 86 86 86 86 87 87 84 84 85 87 88 85 86 83 82 82 83 83 81 82 83 82 82 81 82 82 82 82 82 82 81 81 82 81 82 81 82 80 80 79 78 78 78 77 77 77 77 75 71 70 70 69
92 93 90 89 86 86 83 84 83 83 84 86 86 86 86 85 84 83 83 85 84 88 85 84 83 82 83 83 82 81 82 82 83 83 82 82 81 80 81 81 81 80 80 80 80 80 81 81 81 78 77 78 77 77 78 78 77 73 71 70 71 72 69
93 93 92 90 89 87 84 84 84 84 85 85 86 85 86 84 82 84 84 84 86 84 85 83 82 82 83 83 83 82 82 82 82 82 81 81 80 80 80 81 80 81 80 79 80 79 79 79 79 80 79 77 77 78 79 77 72 70 68 68 71 73 73
91 92 93 90 87 87 86 84 83 84 85 85 85 85 84 83 83 84 87 87 87 83 84 84 81 82 82 81 81 82 82 81 81 81 81 80 81 81 81 80 81 79 79 79 79 78 78 78 78 79 79 78 78 77 77 71 71 68 66 66 67 71 73
89 89 91 90 87 87 86 87 86 85 86 86 86 85 84 83 84 84 85 86 85 86 86 84 82 81 80 81 82 82 81 81 81 80 80 80 80 80 80 80 80 79 78 78 79 78 79 78 78 78 78 78 78 78 73 72 68 62 64 66 66 69 72
89 89 90 89 89 87 89 91 88 86 86 87 87 85 86 85 85 83 84 84 84 85 85 84 83 79 80 81 83 81 81 81 81 80 80 80 81 80 80 79 79 79 79 79 79 79 77 77 78 77 77 77 77 76 76 75 69 63 63 64 64 65 68
90 91 92 93 92 92 90 89 89 89 88 87 88 90 88 87 85 85 86 86 83 83 82 81 80 79 80 82 82 82 81 81 81 81 80 80 80 80 80 79 79 79 80 80 79 78 77 78 78 78 77 77 77 76 76 75 68 61 61 62 61 62 65
89 89 89 89 89 92 89 88 88 88 87 89 90 88 88 87 87 86 85 84 83 81 80 82 81 81 82 82 82 82 82 81 81 80 80 80 80 79 79 79 79 79 80 81 79 78 77 77 78 78 77 78 77 77 77 79 64 60 60 58 58 59 63
93 94 92 91 89 88 88 90 89 90 88 89 90 91 91 88 88 87 85 86 77 79 83 83 82 83 82 82 82 82 82 82 80 80 80 80 79 79 79 79 79 78 78 78 79 79 79 79 79 77 77 78 77 77 76 76 61 61 59 57 58 60 66
96 95 95 93 95 92 89 90 90 92 89 89 90 90 90 89 88 86 86 80 80 84 85 84 82 82 82 83 83 83 82 82 81 80 79 80 80 79 79 78 77 77 77 75 75 77 78 78 78 78 78 78 77 75 73 75 66 60 60 59 59 61 68
98 96 96 97 93 94 92 92 92 91 91 90 88 87 87 89 86 84 83 84 85 86 86 84 83 83 82 82 83 82 82 81 80 79 79 79 79 79 79 78 78 78 77 75 76 77 80 80 78 78 78 77 77 79 75 75 70 58 59 60 60 62 68
97 98 97 96 95 93 93 92 92 93 91 88 86 86 86 87 87 87 84 84 87 87 85 83 82 83 82 82 83 82 82 82 81 81 81 80 80 80 79 79 79 77 76 77 78 78 78 78 78 77 74 79 80 76 76 78 68 55 61 61 58 62 69
91 93 94 92 92 90 90 91 90 85 85 86 85 87 86 86 86 84 84 86 88 87 83 82 82 83 83 83 83 83 82 83 81 80 80 80 79 79 79 79 80 79 78 77 79 78 78 78 77 74 74 78 80 80 79 76 75 72 61 59 58 58 65
95 96 95 96 93 90 91 91 87 86 86 84 85 86 84 86 84 83 82 82 83 83 84 83 83 83 83 83 83 83 83 83 82 80 81 81 81 81 81 81 81 78 78 80 81 78 76 78 76 76 76 79 78 77 74 70 69 69 65 59 56 56 58
96 97 99 92 87 88 89 89 87 87 87 84 85 86 85 84 83 82 81 82 82 83 86 84 83 82 82 82 82 83 83 83 81 80 81 81 79 79 79 80 79 78 78 79 77 75 75 75 74 74 74 75 76 71 66 64 65 65 64 57 56 54 54
92 93 91 86 85 83 75 71 76 85 87 90 92 89 88 87 83 82 82 81 82 84 84 83 83 82 82 82 83 81 80 78 78 79 79 79 80 80 78 77 77 78 77 75 75 74 74 74 74 71 68 66 66 66 64 64 63 62 65 61 55 53 52
92 92 89 96 92 88 82 80 84 88 89 92 89 86 85 83 80 82 82 80 80 81 81 81 84 84 83 81 82 82 80 80 79 81 79 79 79 78 77 77 76 76 75 75 74 73 73 72 67 64 65 65 65 65 63 63 63 64 63 65 59 53 50
91 90 91 91 95 89 91 87 84 86 86 84 81 80 79 81 81 80 76 75 77 76 78 79 80 81 80 82 84 81 79 79 79 78 79 80 79 76 76 77 77 74 75 75 75 73 70 68 66 65 64 65 65 64 64 64 65 67 65 63 63 59 56
87 90 93 93 90 89 89 89 88 84 79 79 80 79 78 78 79 77 75 77 76 77 77 79 79 78 79 81 83 83 81 80 81 79 78 79 78 77 77 76 76 75 75 75 74 70 68 68 69 68 68 66 67 65 64 64 66 66 67 65 64 61 59
83 78 74 74 75 76 77 83 83 80 80 78 79 81 83 81 81 80 77 76 79 78 79 79 78 80 80 81 81 81 81 80 80 80 78 77 78 77 77 76 75 76 73 73 73 72 70 71 70 69 69 66 65 65 64 63 64 64 64 63 62 62 62
76 77 77 75 74 75 76 75 74 73 74 76 79 81 82 84 83 84 84 86 87 86 80 79 80 80 80 80 81 79 80 77 80 79 78 79 79 77 77 77 78 76 71 68 69 69 69 70 69 68 67 65 65 64 63 62 62 59 59 60 59 58 60
76 75 76 75 74 74 74 75 74 75 75 73 75 78 82 83 86 90 85 85 87 84 81 81 79 78 80 82 81 78 76 77 77 78 77 78 69 64 59 61 67 70 64 60 60 63 66 68 69 68 70 71 65 65 63 64 60 56 52 52 49 51 53
77 78 77 77 78 77 76 76 75 75 75 76 79 79 81 83 84 87 89 85 84 83 82 79 80 81 82 82 82 82 79 78 80 79 78 79 70 64 60 53 44 52 65 61 52 47 49 53 61 62 66 68 62 62 63 61 58 46 41 42 42 41 41
76 75 74 75 77 77 77 77 78 78 79 79 79 80 82 82 83 82 84 83 83 83 81 81 77 78 81 80 81 78 78 79 79 78 75 75 74 66 65 62 55 44 43 48 48 46 42 42 43 46 51 60 62 54 50 50 45 42 42 40 40 40 40
79 79 78 79 78 77 77 77 77 78 78 79 79 79 80 81 81 83 84 82 83 82 79 80 78 76 79 80 79 72 75 77 77 77 76 75 75 72 65 63 59 55 44 41 44 44 41 42 42 43 44 46 52 57 59 50 45 42 42 42 40 41 40
MSLP
1006.52 1006.84 1006.84 1007.32 1007.96 1008.40 1008.88 1009.16 1009.28 1009.60 1009.84 1010.24 1010.48 1010.84 1011.08 1011.20 1011.44 1011.80 1012.28 1012.64 1013.04 1013.52 1013.60 1013.76 1014.08 1014.20 1014.52 1014.68 1014.80 1014.92 1015.12 1015.44 1015.68 1016.04 1016.20 1016.28 1016.36 1016.56 1016.68 1016.64 1016.76 1016.76 1016.68 1016.80 1016.64 1016.56 1016.36 1016.12 1016.04 1016.00 1015.92 1015.96 1015.96 1015.92 1015.88 1015.80 1015.84 1015.80 1015.72 1015.64 1015.60 1015.64 1015.64
1006.40 1006.52 1006.64 1007.04 1007.56 1008.00 1008.28 1008.44 1008.80 1009.32 1009.88 1010.68 1011.80 1011.60 1010.88 1011.20 1011.36 1011.60 1012.00 1012.24 1012.64 1013.12 1013.40 1013.60 1013.92 1014.12 1014.20 1014.40 1014.48 1014.68 1014.96 1015.16 1015.40 1015.68 1015.92 1016.12 1016.20 1016.32 1016.36 1016.44 1016.52 1016.60 1016.56 1016.48 1016.40 1016.24 1016.16 1016.00 1015.88 1015.92 1016.00 1015.88 1015.88 1015.80 1015.76 1015.72 1015.68 1015.64 1015.60 1015.52 1015.56 1015.56 1015.52
1005.96 1006.16 1006.32 1006.56 1007.16 1007.48 1008.08 1008.36 1008.92 1009.40 1010.00 1010.88 1011.16 1011.32 1010.88 1011.08 1011.12 1011.32 1011.68 1012.08 1012.52 1012.88 1013.12 1013.44 1013.72 1013.88 1013.96 1014.08 1014.36 1014.56 1014.72 1014.96 1015.24 1015.52 1015.88 1016.00 1016.00 1015.96 1016.00 1016.16 1016.28 1016.36 1016.24 1016.16 1016.16 1016.16 1015.92 1015.88 1015.80 1015.80 1015.84 1015.88 1015.80 1015.76 1015.68 1015.64 1015.56 1015.48 1015.40 1015.32 1015.36 1015.40 1015.44
1005.80 1005.88 1005.76 1005.84 1006.28 1006.76 1007.40 1008.04 1008.76 1009.32 1009.72 1010.28 1010.56 1010.52 1010.44 1010.60 1010.64 1010.92 1011.32 1011.72 1012.36 1012.76 1013.16 1013.36 1013.48 1013.68 1013.80 1014.04 1014.28 1014.44 1014.64 1014.80 1014.96 1015.16 1015.32 1015.44 1015.68 1015.76 1016.00 1016.04 1016.04 1015.96 1016.04 1016.04 1015.84 1015.80 1015.80 1015.80 1015.80 1015.76 1015.68 1015.76 1015.72 1015.64 1015.56 1015.52 1015.40 1015.28 1015.16 1015.12 1015.20 1015.20 1015.24
1005.48 1005.36 1005.88 1006.08 1006.72 1006.92 1007.28 1007.84 1008.28 1008.76 1009.28 1009.68 1010.08 1010.08 1010.00 1010.08 1010.28 1010.80 1011.28 1011.56 1011.92 1012.52 1012.72 1012.92 1013.12 1013.32 1013.52 1013.72 1014.04 1014.20 1014.40 1014.60 1014.80 1014.92 1015.04 1015.12 1015.28 1015.52 1015.84 1015.92 1015.88 1015.88 1015.76 1015.68 1015.68 1015.72 1015.80 1015.84 1015.80 1015.76 1015.72 1015.64 1015.64 1015.52 1015.40 1015.24 1015.16 1015.00 1014.96 1014.96 1015.16 1015.12 1015.20
1006.00 1005.84 1005.88 1005.96 1006.16 1006.64 1006.92 1007.44 1007.52 1007.92 1008.56 1009.20 1009.72 1009.80 1009.76 1009.80 1010.04 1010.64 1011.04 1011.44 1011.92 1012.24 1012.44 1012.68 1013.00 1013.20 1013.60 1013.72 1013.84 1014.04 1014.16 1014.36 1014.56 1014.72 1014.96 1015.04 1015.20 1015.52 1015.72 1015.72 1015.68 1015.72 1015.80 1015.68 1015.48 1015.48 1015.48 1015.60 1015.72 1015.72 1015.72 1015.64 1015.48 1015.36 1015.20 1015.12 1015.00 1014.88 1014.84 1014.88 1015.00 1015.04 1015.16
1005.44 1005.80 1005.76 1005.52 1005.92 1006.36 1006.68 1007.16 1007.96 1008.16 1008.32 1008.40 1008.68 1008.76 1009.04 1009.44 1009.88 1010.28 1010.60 1011.20 1011.68 1012.40 1012.60 1012.72 1012.80 1013.04 1013.36 1013.48 1013.76 1013.92 1014.24 1014.44 1014.60 1014.80 1014.80 1014.96 1015.08 1015.36 1015.48 1015.48 1015.52 1015.56 1015.60 1015.52 1015.56 1015.48 1015.56 1015.56 1015.52 1015.48 1015.48 1015.48 1015.40 1015.36 1015.24 1015.16 1015.08 1014.88 1014.84 1014.84 1014.88 1014.84 1014.92
1004.40 1004.80 1004.84 1005.20 1005.56 1005.72 1006.16 1006.96 1007.80 1008.24 1008.60 1008.68 1008.44 1008.28 1008.48 1008.80 1009.48 1009.92 1010.36 1010.84 1011.48 1012.00 1012.36 1012.44 1012.68 1012.84 1013.08 1013.28 1013.44 1013.76 1013.96 1014.16 1014.32 1014.52 1014.68 1014.88 1015.00 1015.24 1015.32 1015.36 1015.40 1015.32 1015.28 1015.48 1015.44 1015.36 1015.44 1015.40 1015.32 1015.24 1015.24 1015.28 1015.24 1015.20 1015.12 1015.08 1015.04 1014.92 1014.76 1014.76 1014.84 1014.84 1014.72
1003.64 1004.04 1004.28 1004.16 1004.56 1005.48 1006.32 1008.60 1008.72 1008.12 1008.32 1008.32 1008.16 1008.20 1008.52 1008.84 1009.40 1009.76 1010.08 1010.56 1011.12 1011.68 1011.96 1011.80 1012.08 1012.36 1012.72 1013.12 1013.36 1013.56 1013.64 1013.80 1014.16 1014.32 1014.56 1014.76 1014.88 1015.04 1015.00 1014.96 1014.92 1014.84 1015.12 1015.20 1015.12 1015.04 1015.08 1015.12 1015.12 1015.16 1015.16 1015.20 1015.12 1015.04 1014.96 1014.88 1014.80 1014.76 1014.84 1014.76 1014.64 1014.68 1014.68
1003.96 1004.00 1003.96 1003.80 1003.52 1003.88 1005.48 1006.24 1007.36 1008.36 1009.00 1008.64 1008.36 1008.40 1008.64 1008.92 1009.08 1009.20 1009.48 1010.16 1010.68 1011.20 1011.40 1011.32 1011.60 1012.08 1012.56 1012.92 1013.20 1013.32 1013.52 1013.76 1013.96 1014.16 1014.32 1014.60 1014.68 1014.84 1014.80 1014.64 1014.48 1014.48 1014.76 1014.76 1014.80 1014.88 1014.80 1014.84 1014.96 1015.00 1015.04 1015.04 1014.96 1014.88 1014.76 1014.60 1014.60 1014.56 1014.52 1014.64 1014.60 1014.68 1014.72
1003.92 1004.00 1004.04 1004.08 1004.20 1004.88 1006.20 1006.52 1006.84 1007.36 1007.76 1008.04 1008.00 1007.96 1008.20 1008.52 1008.72 1008.84 1009.40 1009.96 1010.76 1010.84 1010.92 1011.00 1011.08 1011.64 1012.20 1012.56 1012.92 1013.16 1013.40 1013.64 1013.80 1014.08 1014.24 1014.36 1014.28 1014.36 1014.24 1014.16 1014.16 1014.32 1014.52 1014.56 1014.68 1014.68 1014.72 1014.72 1014.64 1014.76 1014.84 1014.84 1014.72 1014.64 1014.52 1014.40 1014.36 1014.32 1014.28 1014.24 1014.20 1014.28 1014.28
1003.92 1004.08 1004.32 1004.28 1004.32 1005.28 1006.16 1006.28 1006.32 1006.64 1007.04 1007.16 1007.12 1007.44 1007.72 1007.96 1008.28 1008.76 1009.40 1010.08 1010.36 1010.76 1010.68 1010.92 1011.04 1011.52 1011.96 1012.20 1012.64 1012.88 1013.16 1013.36 1013.56 1013.80 1013.96 1014.12 1014.20 1014.20 1014.12 1014.12 1014.28 1014.32 1014.20 1014.20 1014.36 1014.32 1014.36 1014.44 1014.48 1014.52 1014.52 1014.44 1014.36 1014.28 1014.20 1014.08 1014.08 1014.08 1013.96 1013.88 1013.80 1013.84 1013.92
1003.96 1003.96 1004.24 1004.48 1004.76 1004.52 1004.84 1006.04 1006.40 1006.40 1006.52 1006.72 1006.96 1007.20 1007.56 1007.88 1008.24 1008.72 1009.48 1010.00 1010.08 1010.12 1010.52 1010.68 1010.84 1011.24 1011.76 1011.96 1012.16 1012.60 1012.72 1013.00 1013.28 1013.48 1013.68 1013.80 1013.92 1013.96 1014.04 1014.08 1014.00 1013.88 1013.96 1014.00 1014.16 1014.20 1014.28 1014.28 1014.24 1014.08 1014.08 1014.08 1014.00 1014.04 1014.00 1014.00 1013.84 1013.76 1013.72 1013.88 1014.12 1014.24 1014.32
1003.56 1003.76 1003.72 1003.88 1004.36 1004.92 1005.32 1006.20 1006.20 1006.32 1006.28 1006.40 1006.68 1006.92 1007.40 1007.72 1008.08 1008.72 1009.28 1009.84 1010.08 1010.12 1010.32 1010.40 1010.68 1011.04 1011.40 1011.64 1011.92 1012.20 1012.40 1012.56 1012.84 1013.16 1013.40 1013.52 1013.60 1013.72 1013.80 1013.88 1013.92 1013.92 1013.88 1013.84 1014.08 1014.16 1014.12 1013.96 1013.92 1013.88 1013.88 1013.88 1013.84 1013.76 1013.72 1013.76 1013.64 1013.52 1013.84 1014.36 1014.56 1014.32 1014.24
1003.68 1003.64 1003.96 1004.12 1004.40 1005.00 1005.56 1006.20 1006.20 1006.20 1006.16 1006.16 1006.52 1007.00 1007.36 1007.76 1008.12 1008.56 1009.00 1009.44 1009.92 1009.80 1010.04 1009.92 1010.24 1010.76 1011.12 1011.44 1011.80 1011.92 1012.00 1012.24 1012.52 1012.84 1013.16 1013.36 1013.52 1013.64 1013.68 1013.72 1013.68 1013.68 1013.68 1013.68 1013.76 1013.80 1013.76 1013.64 1013.64 1013.84 1013.92 1013.80 1013.72 1013.60 1013.52 1013.48 1013.76 1013.88 1013.92 1013.92 1013.88 1013.92 1014.04
1003.88 1003.48 1003.40 1003.68 1003.96 1004.28 1004.72 1005.32 1005.44 1005.80 1005.84 1006.00 1006.36 1006.84 1007.20 1007.64 1007.92 1008.20 1008.68 1009.20 1009.48 1009.60 1009.60 1009.88 1010.32 1010.56 1010.84 1011.24 1011.44 1011.52 1011.64 1012.00 1012.44 1012.84 1013.04 1013.24 1013.36 1013.40 1013.36 1013.40 1013.36 1013.32 1013.36 1013.40 1013.36 1013.44 1013.48 1013.44 1013.44 1013.56 1013.64 1013.68 1013.52 1013.44 1013.36 1013.76 1014.16 1014.00 1013.88 1013.72 1013.68 1013.68 1013.80
1003.68 1003.52 1003.00 1003.04 1003.32 1003.76 1004.36 1005.32 1005.56 1005.52 1005.72 1005.96 1006.16 1006.40 1006.88 1007.24 1007.56 1007.92 1008.40 1008.84 1009.12 1009.36 1009.36 1009.68 1010.24 1010.52 1010.88 1011.20 1011.20 1011.24 1011.52 1012.04 1012.56 1012.80 1013.00 1013.00 1013.04 1013.04 1013.04 1013.00 1012.92 1013.00 1013.08 1013.16 1013.20 1013.32 1013.32 1013.36 1013.40 1013.32 1013.24 1013.36 1013.48 1013.44 1013.52 1013.68 1013.32 1013.32 1013.48 1013.48 1013.36 1013.40 1013.32
1003.92 1003.60 1003.12 1003.24 1003.32 1003.24 1003.60 1004.12 1004.84 1005.20 1005.40 1005.64 1005.92 1006.28 1006.72 1007.28 1007.60 1008.04 1008.48 1008.56 1008.80 1008.96 1008.92 1009.40 1010.00 1010.64 1010.84 1010.80 1010.76 1011.04 1011.52 1012.04 1012.40 1012.64 1012.72 1012.72 1012.80 1012.72 1012.68 1012.64 1012.72 1012.88 1012.96 1013.00 1013.08 1013.12 1013.08 1013.20 1013.12 1013.04 1013.00 1013.04 1013.04 1013.12 1013.36 1013.20 1012.96 1013.20 1013.32 1013.20 1013.16 1013.08 1013.12
1003.92 1003.56 1003.28 1003.00 1003.08 1003.28 1003.16 1003.40 1004.04 1004.64 1005.16 1005.36 1005.56 1006.08 1006.32 1006.68 1007.32 1007.80 1007.96 1008.28 1008.24 1008.16 1008.60 1009.20 1009.92 1010.48 1010.72 1010.52 1010.52 1010.96 1011.40 1011.88 1012.20 1012.36 1012.36 1012.32 1012.28 1012.28 1012.32 1012.44 1012.68 1012.84 1012.88 1012.92 1012.80 1012.84 1012.96 1012.84 1012.76 1012.80 1012.72 1012.76 1012.80 1012.84 1012.68 1012.80 1012.84 1012.96 1012.88 1012.88 1012.96 1013.08 1013.04
1003.52 1003.32 1003.04 1002.76 1002.56 1002.56 1002.68 1002.60 1002.88 1003.48 1004.20 1004.68 1004.92 1005.16 1005.48 1005.84 1006.68 1007.20 1007.40 1007.68 1007.92 1008.28 1008.76 1009.28 1009.76 1010.12 1010.36 1010.28 1010.44 1010.84 1011.28 1011.60 1011.84 1012.00 1011.92 1011.76 1011.76 1011.88 1012.12 1012.36 1012.56 1012.56 1012.48 1012.48 1012.48 1012.64 1012.68 1012.56 1012.56 1012.48 1012.48 1012.48 1012.52 1012.44 1012.44 1012.56 1012.56 1012.80 1012.88 1012.88 1012.92 1012.96 1013.00
1003.36 1003.28 1003.20 1002.96 1002.84 1002.44 1002.28 1002.48 1002.60 1003.04 1003.60 1004.00 1004.28 1004.68 1005.16 1005.84 1006.24 1006.80 1007.32 1007.68 1008.12 1008.68 1009.16 1008.96 1009.32 1009.68 1009.80 1010.08 1010.32 1010.64 1011.00 1011.28 1011.44 1011.56 1011.52 1011.44 1011.44 1011.60 1011.88 1012.08 1012.24 1012.32 1012.24 1012.24 1012.44 1012.52 1012.52 1012.44 1012.40 1012.32 1012.24 1012.20 1012.24 1012.36 1012.40 1012.20 1012.48 1012.72 1012.72 1012.80 1012.88 1012.88 1012.84
1002.64 1002.44 1002.60 1002.40 1002.44 1002.28 1002.08 1002.20 1002.44 1002.60 1002.96 1002.80 1003.24 1003.92 1004.68 1005.44 1005.72 1006.44 1007.28 1007.60 1009.16 1009.60 1008.68 1008.64 1008.88 1009.16 1009.40 1009.88 1010.16 1010.40 1010.60 1010.84 1011.04 1011.12 1011.08 1011.12 1011.16 1011.40 1011.60 1011.84 1012.04 1012.20 1012.12 1012.16 1012.24 1012.24 1012.08 1011.96 1011.88 1012.00 1012.04 1011.92 1012.04 1012.20 1012.36 1012.20 1012.36 1012.44 1012.60 1012.80 1012.80 1012.72 1012.72
1001.80 1001.68 1001.36 1001.36 1001.44 1001.64 1001.44 1001.36 1001.56 1001.60 1001.92 1002.52 1003.04 1003.72 1004.32 1004.88 1005.40 1006.12 1006.84 1008.32 1009.40 1008.16 1007.92 1008.16 1008.68 1009.00 1009.32 1009.64 1009.84 1010.04 1010.16 1010.28 1010.52 1010.68 1010.72 1010.80 1011.00 1011.20 1011.32 1011.52 1011.64 1011.64 1011.60 1012.04 1012.28 1012.20 1011.88 1011.76 1011.64 1011.56 1011.60 1011.68 1011.76 1012.00 1012.16 1012.04 1012.16 1012.28 1012.44 1012.52 1012.48 1012.56 1012.40
1001.16 1001.08 1001.04 1001.04 1001.12 1001.24 1001.24 1001.16 1001.08 1001.16 1001.64 1002.40 1002.96 1003.44 1003.88 1004.36 1005.24 1005.92 1006.48 1006.84 1007.04 1007.32 1007.56 1008.00 1008.48 1008.76 1009.04 1009.36 1009.44 1009.56 1009.64 1009.76 1009.96 1010.20 1010.32 1010.44 1010.72 1010.84 1011.00 1011.04 1011.04 1011.16 1011.20 1011.60 1011.80 1011.80 1011.48 1011.24 1011.36 1011.48 1011.52 1011.64 1011.68 1011.48 1011.72 1011.80 1011.68 1012.08 1012.20 1012.12 1012.12 1012.32 1012.28
1001.12 1000.84 1000.48 1000.76 1001.28 1001.60 1001.44 1001.28 1001.24 1001.32 1001.72 1002.40 1003.40 1003.60 1003.72 1004.16 1004.80 1005.60 1006.32 1006.48 1006.64 1006.88 1007.48 1007.96 1008.36 1008.52 1008.84 1008.92 1008.92 1008.96 1009.12 1009.28 1009.48 1009.64 1009.84 1010.08 1010.20 1010.32 1010.52 1010.52 1010.56 1010.64 1010.52 1010.80 1011.12 1011.16 1011.00 1011.04 1011.28 1011.48 1011.72 1011.60 1011.36 1011.24 1011.44 1011.44 1011.68 1011.92 1011.88 1011.88 1011.96 1012.12 1012.04
1001.60 1001.24 1001.04 1001.08 1001.28 1001.44 1001.40 1001.16 1001.56 1002.08 1002.48 1003.00 1003.36 1003.68 1004.24 1004.48 1004.76 1005.44 1006.00 1006.24 1006.28 1006.96 1007.52 1007.80 1007.84 1007.92 1008.08 1008.28 1008.40 1008.52 1008.68 1008.80 1009.04 1009.20 1009.36 1009.60 1009.68 1009.84 1009.96 1009.96 1010.16 1010.20 1010.32 1010.52 1010.64 1010.84 1010.80 1010.84 1011.04 1011.64 1011.68 1011.28 1011.04 1011.08 1011.20 1011.68 1012.04 1011.88 1011.80 1011.76 1011.88 1012.08 1012.00
1000.84 1000.64 1001.04 1000.96 1001.04 1000.88 1001.20 1001.32 1001.72 1001.92 1002.40 1002.76 1002.80 1003.28 1004.68 1005.08 1005.44 1005.96 1006.04 1006.12 1006.56 1007.20 1007.20 1007.16 1007.24 1007.52 1007.80 1007.92 1008.08 1008.20 1008.32 1008.44 1008.72 1008.96 1008.96 1009.00 1009.32 1009.48 1009.60 1009.72 1009.96 1010.20 1010.28 1010.44 1010.52 1010.68 1010.80 1010.84 1011.04 1011.16 1011.20 1011.04 1011.08 1011.28 1011.72 1012.44 1013.24 1013.20 1012.12 1012.00 1012.20 1012.12 1012.08
1000.64 1000.36 999.84 1000.36 1000.64 1001.20 1001.88 1002.28 1001.96 1001.92 1002.52 1002.72 1002.80 1003.20 1004.20 1004.80 1005.72 1005.96 1006.08 1006.36 1006.76 1006.72 1006.48 1006.76 1007.08 1007.32 1007.52 1007.72 1007.84 1007.88 1008.00 1008.28 1008.60 1008.72 1008.80 1009.08 1009.32 1009.48 1009.60 1009.64 1009.88 1010.12 1010.24 1010.40 1010.64 1010.88 1010.96 1010.92 1010.92 1010.96 1011.24 1011.32 1011.36 1012.04 1012.68 1013.28 1013.64 1013.72 1013.00 1012.52 1012.32 1012.20 1012.16
1000.84 1000.80 1001.24 1001.44 1001.20 1001.32 1003.40 1005.76 1005.24 1003.76 1002.92 1002.76 1002.88 1003.48 1004.16 1004.88 1005.64 1005.96 1006.24 1006.64 1006.48 1006.16 1006.16 1006.44 1006.76 1007.12 1007.36 1007.56 1007.72 1007.84 1007.96 1008.00 1008.28 1008.84 1009.24 1009.80 1009.52 1009.40 1009.64 1009.76 1009.80 1009.92 1010.12 1010.56 1010.84 1010.92 1011.00 1010.96 1011.04 1011.52 1011.88 1011.88 1011.88 1012.00 1012.44 1012.76 1012.92 1013.24 1013.44 1012.80 1012.36 1012.20 1012.20
1000.48 1000.80 1001.32 1000.68 1001.08 1001.48 1002.80 1003.28 1003.16 1003.08 1002.84 1002.76 1003.08 1003.72 1004.12 1004.40 1005.64 1006.24 1007.08 1007.92 1007.44 1007.04 1006.96 1007.12 1007.12 1007.08 1007.32 1007.48 1007.56 1007.64 1007.88 1008.12 1008.40 1008.68 1009.12 1009.48 1009.40 1009.44 1009.60 1009.80 1010.00 1010.20 1010.48 1010.56 1010.68 1010.84 1011.04 1011.16 1011.64 1011.52 1011.56 1011.72 1011.96 1012.28 1012.44 1012.44 1012.52 1012.52 1012.44 1012.24 1012.16 1012.12 1012.16
1000.76 1001.00 1001.04 1001.08 1000.92 1001.20 1001.48 1002.40 1002.64 1002.60 1003.08 1003.60 1003.92 1003.84 1004.52 1005.12 1006.04 1006.88 1007.24 1007.20 1007.00 1007.20 1007.40 1007.32 1007.52 1007.64 1007.60 1007.56 1007.60 1007.72 1007.88 1008.12 1008.44 1008.72 1008.80 1009.04 1009.20 1009.56 1009.80 1009.96 1010.00 1010.36 1010.32 1010.40 1010.52 1010.76 1011.24 1011.56 1011.60 1011.84 1011.76 1011.64 1011.88 1012.32 1012.56 1012.44 1012.28 1012.12 1012.00 1012.08 1012.12 1012.12 1012.12
1001.04 1000.92 1000.72 1000.72 1001.32 1001.52 1001.56 1001.68 1002.28 1003.16 1004.36 1004.68 1004.36 1004.36 1004.52 1005.00 1005.52 1006.12 1006.48 1006.24 1006.36 1006.40 1006.84 1007.56 1007.88 1007.92 1007.72 1007.64 1007.68 1007.76 1007.92 1008.24 1008.36 1008.64 1008.84 1008.96 1009.12 1009.44 1009.64 1009.92 1010.04 1010.16 1010.16 1010.28 1010.48 1010.88 1011.16 1011.28 1011.32 1011.40 1011.52 1011.80 1012.00 1012.32 1012.36 1012.16 1012.04 1012.00 1012.12 1012.24 1012.16 1012.20 1012.12
1002.08 1002.88 1003.40 1003.92 1004.20 1004.12 1004.20 1003.80 1004.08 1004.60 1005.12 1005.36 1004.84 1004.44 1004.60 1005.00 1005.36 1006.00 1006.28 1006.48 1006.64 1006.92 1007.36 1007.60 1007.72 1007.92 1007.92 1007.80 1007.68 1007.68 1007.80 1008.12 1008.32 1008.60 1008.88 1009.12 1009.28 1009.36 1009.40 1009.48 1009.80 1010.08 1010.20 1010.44 1010.68 1010.88 1010.96 1011.00 1011.08 1011.32 1011.48 1011.92 1011.96 1012.04 1012.08 1012.00 1012.12 1012.20 1012.36 1012.44 1012.52 1012.40 1012.24
1002.80 1002.76 1002.60 1002.76 1003.24 1003.32 1003.28 1004.68 1005.92 1006.52 1006.28 1006.12 1005.48 1004.80 1005.08 1005.28 1005.68 1005.92 1006.16 1006.52 1006.60 1006.88 1007.52 1007.84 1007.96 1008.04 1008.08 1007.92 1007.80 1007.92 1007.96 1008.32 1008.44 1008.76 1009.00 1009.16 1009.20 1009.40 1009.40 1009.52 1009.68 1010.04 1010.68 1011.20 1011.24 1011.20 1011.16 1011.08 1011.16 1011.36 1011.52 1011.72 1011.80 1011.88 1011.88 1012.08 1012.28 1012.88 1012.92 1012.92 1012.92 1012.80 1012.60
1003.36 1003.28 1003.08 1003.28 1003.16 1003.04 1003.52 1003.96 1005.28 1006.00 1006.44 1006.80 1006.28 1006.00 1005.44 1005.24 1005.40 1005.44 1006.04 1006.32 1006.36 1006.64 1007.48 1007.88 1007.96 1008.04 1008.00 1007.76 1007.72 1008.16 1008.32 1008.60 1008.84 1008.92 1009.16 1009.24 1010.12 1010.76 1011.36 1011.28 1010.68 1010.76 1011.44 1012.08 1012.08 1011.76 1011.56 1011.40 1011.32 1011.28 1011.20 1011.04 1011.68 1011.80 1011.84 1011.96 1012.48 1013.24 1013.52 1013.48 1013.44 1013.28 1013.24
1003.36 1003.40 1003.68 1003.72 1003.72 1003.72 1003.92 1004.08 1004.48 1005.16 1005.32 1005.52 1005.52 1005.48 1005.52 1005.64 1005.60 1005.68 1006.04 1006.56 1006.60 1006.80 1007.40 1007.72 1007.88 1007.96 1007.88 1007.72 1007.88 1007.96 1008.36 1008.72 1008.72 1008.68 1008.84 1009.20 1010.32 1010.88 1011.76 1012.40 1012.52 1011.72 1011.40 1012.16 1012.72 1012.36 1012.08 1011.80 1012.08 1012.08 1011.72 1011.56 1012.08 1012.04 1012.04 1012.36 1012.92 1013.40 1013.48 1013.40 1013.24 1013.24 1013.36
1003.84 1003.96 1003.96 1003.80 1004.00 1004.32 1004.56 1004.56 1004.60 1004.64 1004.96 1005.28 1005.60 1005.80 1005.72 1005.88 1006.12 1006.24 1006.32 1006.36 1006.52 1006.92 1007.32 1007.68 1008.00 1008.04 1007.88 1007.88 1007.92 1008.00 1008.16 1008.48 1008.60 1008.76 1009.08 1009.24 1009.52 1010.52 1011.04 1011.64 1012.48 1012.96 1013.00 1012.96 1012.92 1012.68 1012.60 1012.56 1012.52 1012.40 1012.16 1011.96 1012.36 1012.88 1012.76 1012.96 1013.16 1013.20 1013.16 1013.08 1012.96 1012.96 1012.92
1003.60 1003.64 1003.84 1003.72 1004.04 1004.48 1004.72 1004.84 1004.72 1004.96 1005.24 1005.24 1005.44 1005.80 1006.00 1006.24 1006.28 1006.12 1006.12 1006.36 1006.60 1006.88 1007.32 1007.60 1007.92 1008.20 1008.00 1007.72 1007.84 1008.12 1008.16 1008.44 1008.60 1008.80 1009.00 1009.16 1009.20 1009.80 1010.68 1011.28 1011.92 1012.76 1013.16 1013.28 1013.08 1012.96 1013.00 1013.04 1012.92 1012.76 1012.56 1012.44 1012.32 1012.32 1012.72 1012.96 1013.00 1013.04 1012.92 1012.80 1012.80 1012.72 1012.72
Wind_Speed
19 19 14 15 14 15 15 14 14 12 11 9 11 11 11 10 11 12 11 10 10 10 8 8 7 5 6 6 5 4 4 3 4 3 1 3 3 2 1 2 2 2 2 2 3 3 2 3 2 3 2 3 3 3 3 3 3 4 3 3 3 3 4
16 16 14 16 16 16 17 17 12 10 9 8 7 5 9 9 12 12 12 11 11 11 10 9 7 6 6 7 6 5 5 5 4 4 2 3 3 2 4 2 1 2 2 3 3 3 2 3 3 2 2 3 3 3 4 4 4 4 4 3 4 3 3
14 14 13 14 16 15 16 15 13 10 10 11 13 12 10 10 12 12 12 12 12 11 10 8 8 6 6 6 5 6 6 4 4 6 6 5 6 4 2 2 3 3 2 2 2 4 4 3 2 2 2 3 3 3 3 5 4 4 4 3 4 4 3
12 8 11 12 14 14 15 15 14 12 12 15 15 15 9 13 13 11 12 12 12 12 11 9 8 7 6 6 6 6 6 6 5 4 4 2 2 3 2 3 5 4 4 3 2 2 3 3 3 3 4 3 4 3 4 5 6 5 4 4 4 3 3
11 10 4 6 12 13 13 14 16 15 15 17 15 15 8 13 12 11 10 10 12 11 11 10 8 7 6 5 5 4 5 6 5 4 3 3 3 3 3 2 2 3 3 2 2 3 2 3 3 3 4 3 4 5 5 4 5 5 4 4 4 3 2
13 11 12 10 10 14 16 14 17 19 21 21 17 16 11 15 15 16 12 11 10 10 9 9 8 7 6 5 4 5 4 4 3 3 4 3 3 3 4 5 2 2 4 3 2 2 2 2 3 4 4 5 6 5 5 5 4 4 4 3 3 2 2
11 13 11 12 9 11 11 12 11 8 11 15 14 13 13 16 16 15 13 13 13 11 11 10 8 7 6 5 4 4 5 4 4 4 3 4 4 4 3 3 3 2 3 3 4 3 3 4 4 5 5 5 5 6 6 5 6 5 4 4 4 3 4
9 7 9 15 13 16 16 12 13 13 14 11 13 15 17 15 13 14 13 14 14 14 13 13 9 7 7 4 6 5 5 4 5 4 4 4 4 4 4 3 3 4 4 4 5 4 4 5 5 4 5 5 5 6 6 6 6 7 6 6 4 3 3
6 5 5 9 12 16 15 17 15 15 18 16 14 12 9 11 14 13 15 15 14 14 15 14 12 9 7 6 5 5 5 5 5 4 4 4 4 6 6 6 8 9 8 6 3 4 5 4 3 3 5 6 6 6 6 5 6 4 5 7 5 4 4
4 5 6 5 7 8 13 13 15 11 10 12 12 12 15 14 13 14 15 16 15 17 15 13 12 11 9 7 6 6 6 6 4 5 6 7 5 6 5 5 5 3 4 4 3 3 2 3 5 7 7 7 7 7 6 6 1 2 4 4 4 3 5
1 1 4 5 6 7 16 13 13 16 17 13 12 11 13 16 16 13 12 13 14 13 14 8 7 12 11 9 9 7 7 6 6 6 5 5 5 6 7 8 4 2 1 2 3 3 6 6 3 3 5 7 6 5 5 5 4 5 6 7 3 4 4
5 3 3 6 6 11 20 18 17 15 13 12 13 13 11 13 12 10 10 10 10 10 8 8 8 8 7 11 9 7 9 7 5 6 6 7 6 6 4 2 2 5 7 5 6 3 3 4 5 6 7 6 6 6 5 5 4 7 7 5 6 5 4
4 5 1 3 3 6 8 15 17 17 14 14 14 12 11 12 12 11 10 9 8 7 7 9 9 8 7 9 10 9 9 8 7 5 5 5 5 4 3 5 7 6 4 4 6 6 4 5 8 7 5 5 5 5 4 5 7 6 6 4 4 4 5
5 6 6 5 4 1 3 9 14 13 12 10 13 13 11 10 11 11 11 10 7 8 10 8 10 9 9 8 5 7 9 8 7 7 6 4 3 3 4 3 3 3 4 3 4 7 8 7 4 4 4 5 5 4 5 6 8 4 2 5 4 5 3
7 6 8 11 8 6 11 10 12 12 13 12 14 14 13 11 11 11 11 11 10 8 9 8 8 8 10 9 7 6 7 6 5 5 6 6 5 5 4 4 4 5 6 5 5 5 7 6 4 3 5 5 6 7 6 7 4 5 1 2 3 3 5
12 8 8 11 10 12 11 11 12 12 13 14 16 15 14 13 13 14 15 13 12 10 8 6 7 6 6 8 6 5 7 6 5 5 5 5 6 5 5 5 6 6 6 6 5 4 4 4 3 4 6 7 6 4 5 5 3 2 9 7 4 4 5
6 10 8 7 8 6 6 12 14 15 15 14 16 17 15 14 13 13 14 13 13 11 9 8 8 6 6 8 6 6 7 6 6 6 6 6 5 4 5 6 5 5 5 5 4 4 4 5 7 6 3 5 6 7 2 3 2 4 12 11 14 9 6
9 7 5 4 9 10 12 15 17 16 14 15 16 15 13 12 12 11 13 13 11 11 10 9 8 8 8 8 7 8 8 7 7 7 7 6 5 5 5 5 5 5 5 4 4 4 5 5 5 3 2 4 7 2 3 4 5 9 12 11 11 10 6
7 9 7 5 3 9 13 14 13 11 11 14 15 14 14 13 13 12 12 11 10 11 10 11 10 10 7 6 6 8 8 8 8 8 8 7 6 6 5 5 5 5 4 5 3 4 5 5 5 5 5 6 3 3 3 2 3 7 9 8 7 9 9
7 8 9 8 8 5 7 8 10 15 18 16 15 16 16 15 14 13 12 11 9 9 9 9 10 10 10 9 8 8 8 8 8 7 7 6 7 6 5 4 4 4 4 4 3 5 6 6 5 4 4 4 4 3 2 2 5 6 7 8 9 10 7
5 5 6 7 6 7 4 8 9 11 16 16 17 16 15 13 12 12 11 12 8 5 9 10 12 12 10 9 8 8 9 9 8 7 6 6 6 6 5 5 4 4 5 4 4 6 5 5 4 3 4 4 4 3 4 2 7 7 7 8 10 11 6
7 8 8 7 6 5 5 7 11 12 14 15 15 15 15 13 14 14 12 6 6 11 11 11 11 9 8 8 9 9 8 9 8 7 6 6 6 6 5 4 3 4 4 3 4 6 6 5 4 6 7 4 3 3 3 3 12 11 10 9 9 8 5
7 8 5 3 4 5 4 6 11 14 11 11 13 13 12 14 14 12 10 9 15 11 10 10 10 9 9 8 9 9 9 8 8 8 8 7 6 6 6 6 6 7 6 4 6 9 8 5 5 5 4 3 4 3 3 2 5 8 8 9 9 4 5
7 5 5 3 1 4 3 4 7 9 10 13 12 14 14 14 12 11 8 10 8 9 9 9 9 9 9 8 8 8 9 9 8 8 8 7 7 5 4 6 8 7 6 6 7 9 8 6 3 4 1 3 5 4 3 3 7 10 11 10 7 4 5
5 9 1 3 3 5 9 7 6 5 6 12 15 14 14 14 12 10 9 8 10 9 8 8 9 8 9 9 8 8 8 8 8 7 7 7 6 5 6 6 5 5 7 8 8 7 5 5 7 2 3 6 7 6 5 4 3 10 11 9 8 5 4
4 4 2 3 3 7 7 4 3 13 14 14 13 12 9 8 9 9 9 8 7 7 8 9 9 10 8 8 8 7 7 7 7 7 6 6 5 5 3 3 5 7 7 6 6 7 7 7 3 4 8 8 4 4 5 7 7 4 9 10 8 2 2
8 2 3 7 5 5 6 7 11 15 16 15 14 15 11 8 8 6 6 6 6 7 7 9 9 8 7 7 8 7 7 6 6 7 7 4 2 1 2 3 2 3 2 1 3 4 6 5 1 3 4 3 2 2 7 8 6 12 16 6 1 3 1
7 7 5 5 7 4 4 9 5 12 14 12 12 12 10 8 6 7 7 6 8 6 5 6 6 6 6 7 7 7 5 3 1 2 2 1 2 3 3 0 3 1 2 3 4 5 6 6 4 4 5 5 6 9 11 7 9 11 15 2 1 1 3
6 6 3 8 8 9 13 3 7 1 11 14 13 11 10 11 6 6 5 8 8 6 6 7 8 7 6 6 5 4 6 6 6 3 4 3 3 1 1 1 3 3 3 5 5 6 6 3 3 5 5 4 3 5 7 8 8 13 13 3 0 2 4
4 2 9 5 9 9 16 12 11 12 13 14 12 6 3 9 2 1 4 2 5 6 5 4 1 1 3 3 3 3 3 6 4 2 5 4 1 0 0 0 1 1 3 5 6 4 4 2 5 2 1 2 1 5 6 4 4 10 6 4 5 7 7
3 4 5 5 10 10 9 16 14 11 7 3 9 7 7 6 5 1 4 5 7 7 5 5 7 3 3 4 2 3 5 4 4 6 5 3 2 1 1 2 2 5 5 5 4 2 2 3 2 2 3 4 1 4 2 4 4 2 3 4 10 11 11
6 7 7 3 5 4 7 5 8 8 10 7 10 9 8 8 5 5 3 3 4 2 3 1 1 5 5 4 1 2 5 3 3 5 4 4 3 2 3 5 6 6 4 4 4 3 3 2 2 1 0 1 3 3 3 3 1 1 2 5 7 7 10
8 16 19 19 19 19 15 12 10 14 12 11 8 10 8 9 7 4 4 5 4 5 3 2 3 2 2 3 4 3 2 3 4 2 3 4 2 5 7 7 4 2 3 1 2 1 1 1 2 2 1 2 1 1 1 1 2 4 4 5 5 6 7
9 9 10 10 11 12 14 17 11 9 7 7 6 10 8 8 4 3 4 5 6 4 6 4 2 2 4 6 4 2 3 5 2 2 2 4 2 3 3 4 3 3 5 5 5 5 4 4 3 3 0 3 3 3 2 1 3 4 5 5 5 5 6
11 9 9 10 9 11 13 16 13 5 6 7 9 8 5 5 1 1 4 6 6 5 7 3 3 5 7 4 3 5 5 2 1 3 4 2 8 7 7 6 6 5 7 6 4 4 4 4 4 5 5 4 2 2 2 2 3 1 1 2 0 2 4
9 10 8 7 9 11 9 11 11 10 8 6 3 5 4 3 6 6 6 8 5 4 2 3 2 4 5 3 2 5 6 3 4 3 2 2 6 6 7 12 13 10 6 5 7 11 13 10 6 4 4 4 6 5 4 3 2 3 4 5 4 5 8
9 9 8 6 8 9 10 10 10 9 6 7 9 8 6 7 7 5 6 4 6 5 3 3 3 3 4 3 4 1 4 5 3 2 3 1 3 7 6 6 8 14 15 11 8 9 10 10 9 10 10 6 6 7 10 8 6 3 1 3 6 8 9
7 7 11 10 11 10 10 11 12 11 8 8 8 8 6 7 5 3 7 5 3 4 5 4 3 3 4 5 3 5 1 1 2 2 3 3 2 8 8 6 6 5 8 8 9 10 10 10 8 8 9 11 9 5 5 5 4 2 1 3 5 8 8
Wind_Direction
198 206 194 177 181 180 176 178 180 178 168 165 164 169 170 168 149 148 155 157 156 151 158 151 165 164 163 160 152 147 119 95 143 95 203 84 80 40 326 89 347 304 273 314 320 313 332 300 285 297 312 308 306 307 300 295 293 282 285 291 294 293 291
196 204 199 180 181 179 176 180 165 159 152 98 38 276 188 161 149 153 155 159 157 157 156 158 170 162 180 157 155 157 154 153 151 122 117 150 112 173 196 204 157 327 292 261 265 285 280 281 286 315 308 305 300 309 303 300 297 299 292 289 292 281 282
203 198 205 186 183 181 172 173 168 150 139 142 181 212 211 162 157 155 156 158 158 157 156 165 167 171 179 160 158 157 156 153 159 158 180 197 193 172 144 144 221 224 275 311 286 268 254 263 311 310 291 282 287 282 284 288 295 289 281 286 290 289 288
194 204 199 189 175 172 166 167 154 155 165 166 191 203 197 158 158 157 157 159 158 158 161 168 169 176 171 166 160 158 160 159 167 168 186 181 154 153 173 212 203 221 216 228 292 325 317 296 283 281 296 293 284 287 278 268 267 263 272 274 271 282 278
184 185 208 182 162 181 176 170 169 173 176 180 186 199 191 157 153 150 153 162 160 164 164 168 170 174 168 163 157 163 157 161 159 169 188 170 169 155 211 264 300 242 243 254 236 247 261 286 292 291 285 282 279 273 273 265 259 262 260 264 268 268 273
184 191 196 203 180 187 179 171 181 177 184 183 183 187 174 158 159 161 160 160 162 162 166 168 170 166 160 162 170 149 142 144 145 156 167 180 167 177 208 217 246 303 276 251 266 250 260 282 285 285 295 295 291 287 279 281 286 277 270 271 268 254 273
178 197 202 194 166 163 167 167 168 167 189 184 169 167 163 166 168 166 165 169 170 167 174 171 172 162 166 161 162 157 146 154 152 171 174 185 184 204 219 227 225 283 311 279 257 279 282 263 258 258 253 256 267 280 284 293 289 284 288 274 261 252 243
176 200 188 196 181 166 172 148 141 176 213 195 172 170 186 168 172 169 174 173 176 178 180 179 173 165 159 167 160 165 165 166 163 174 179 195 189 197 219 220 233 211 219 241 242 238 245 256 265 266 262 264 279 282 292 294 298 300 285 274 271 271 269
173 172 210 219 192 184 151 141 181 188 195 185 168 165 165 161 175 183 184 177 181 177 184 182 174 162 155 161 168 168 163 162 169 176 184 199 193 223 221 220 219 218 229 234 263 236 242 249 262 293 296 281 269 267 264 260 265 291 313 305 294 276 264
347 173 183 207 255 169 148 145 143 137 168 176 171 171 175 178 186 190 183 180 182 182 181 186 168 165 160 163 169 173 162 162 178 191 203 198 196 216 240 269 270 241 220 217 225 258 269 268 260 247 248 258 265 265 267 265 197 245 264 278 289 300 298
260 320 149 201 226 119 134 140 168 167 173 181 177 184 188 182 187 180 167 176 183 183 178 179 144 158 164 171 181 176 168 169 179 191 204 230 237 232 237 231 264 66 264 260 265 268 258 247 241 277 278 267 261 265 272 275 210 245 243 250 235 248 257
159 191 211 189 207 145 163 166 178 180 182 184 187 189 182 175 168 159 143 160 171 186 175 145 136 137 171 181 182 179 167 169 186 200 204 205 212 225 241 304 337 265 259 236 237 229 255 263 249 244 248 258 266 262 255 267 221 220 241 245 259 256 262
173 167 30 305 229 201 150 154 168 178 173 182 187 180 172 162 157 144 140 157 178 175 144 146 144 162 179 204 187 180 170 170 177 196 215 202 201 219 240 237 251 273 319 330 282 275 282 274 260 246 251 262 270 278 298 293 290 272 235 267 340 354 334
178 163 184 218 265 92 113 140 178 178 178 166 173 163 157 151 149 141 146 157 179 170 148 158 157 169 185 194 195 163 167 170 176 185 198 211 208 203 204 223 243 254 248 259 284 278 270 275 288 309 302 299 291 299 286 276 271 245 58 82 261 251 260
231 217 184 197 190 162 169 191 172 183 181 173 162 162 157 152 147 146 153 158 191 177 163 166 166 170 186 182 176 163 154 159 168 178 182 193 198 201 209 217 220 220 229 226 235 253 264 272 292 299 290 283 280 271 262 274 356 58 9 248 265 237 253
292 273 203 195 188 183 172 166 180 191 186 177 168 165 163 161 162 163 168 171 178 164 167 165 175 180 163 155 169 151 148 149 166 181 186 194 197 200 202 214 215 226 228 230 232 244 258 265 251 273 267 261 261 271 283 30 65 252 214 234 248 251 229
254 254 266 177 150 151 147 160 191 196 189 178 171 168 167 168 168 167 167 170 168 168 170 170 175 163 158 156 175 170 147 158 177 192 194 190 199 208 219 217 220 225 232 237 219 235 252 249 248 248 277 299 297 280 17 114 207 279 287 265 245 237 238
273 294 287 202 182 179 188 190 183 186 177 171 167 167 162 158 162 161 168 180 172 169 166 167 165 161 171 184 173 156 160 171 184 190 193 195 193 209 216 228 231 231 240 233 224 227 230 248 246 241 249 264 266 288 152 213 202 206 225 228 247 259 254
312 309 305 310 276 204 192 176 172 162 167 167 168 163 167 163 174 181 183 183 174 174 167 169 154 159 176 193 171 154 169 180 190 189 192 189 195 202 217 224 233 244 250 252 225 219 233 232 231 232 225 234 233 207 228 183 236 265 277 284 283 260 249
275 273 279 282 277 259 196 183 173 173 176 174 174 174 175 179 177 188 192 180 164 167 169 172 164 163 183 188 167 165 172 190 190 194 194 189 191 194 218 227 239 241 242 250 233 230 239 236 235 238 241 248 217 251 242 195 212 241 277 298 294 276 262
262 262 266 273 278 268 232 183 176 170 171 173 175 177 179 180 180 172 174 166 166 153 203 183 161 171 175 163 170 169 183 184 189 195 196 193 187 200 206 220 214 239 245 238 248 251 232 230 231 239 258 230 198 229 243 238 170 216 249 261 260 263 268
260 255 243 232 248 253 231 187 182 182 183 182 179 172 176 173 162 163 161 151 95 221 196 166 158 154 151 172 172 180 180 184 184 195 198 193 194 198 208 185 151 231 251 262 279 271 258 242 229 232 242 218 207 250 234 162 175 199 197 225 246 264 252
284 284 286 205 228 255 233 204 189 190 177 164 164 166 163 146 146 150 147 150 211 190 152 149 149 154 174 176 180 180 182 185 186 195 197 197 198 205 214 210 207 224 221 235 255 260 250 237 229 242 268 257 233 177 214 234 202 207 208 222 232 232 245
275 285 288 342 49 294 265 199 190 176 167 154 146 140 146 147 141 157 182 201 175 162 148 154 158 170 175 179 184 182 184 187 190 192 195 194 202 211 213 199 211 204 164 194 236 246 242 242 252 272 254 335 295 238 187 229 219 188 208 228 241 219 259
334 309 274 134 261 240 237 226 208 182 120 137 144 145 144 145 151 166 193 189 170 161 161 161 172 175 182 185 186 186 184 189 191 194 192 196 203 209 230 212 204 183 202 213 222 240 258 266 270 306 6 288 276 277 230 259 137 193 228 229 239 227 252
258 255 303 58 35 321 300 250 114 112 128 143 135 132 124 143 162 182 187 172 159 163 175 177 176 181 182 188 188 187 189 192 188 190 195 199 207 225 215 208 201 204 207 214 227 244 247 249 232 178 202 231 261 294 327 355 348 290 236 239 237 303 306
267 231 216 239 206 205 215 204 154 156 148 149 149 131 136 178 183 192 177 162 168 185 187 174 174 176 176 180 190 192 194 182 172 189 194 187 197 228 238 232 254 59 76 226 245 248 268 291 162 222 273 278 287 13 37 30 318 302 293 277 341 20 11
282 267 248 116 83 28 359 351 153 138 128 135 138 134 158 179 185 165 173 174 189 188 148 153 161 170 181 191 196 195 167 112 40 229 139 47 231 216 246 294 89 127 60 338 298 294 296 298 292 6 337 319 357 35 47 37 348 299 314 317 9 277 226
220 221 143 99 80 87 84 357 337 68 134 149 150 176 170 158 137 123 149 193 193 176 166 167 166 177 190 203 191 150 155 162 184 183 94 274 239 162 84 74 7 19 308 281 272 269 283 316 17 30 40 36 28 43 49 33 6 309 285 286 132 277 247
177 16 141 147 139 149 158 177 189 180 165 179 165 154 103 128 101 338 116 51 8 14 11 7 342 128 202 174 219 202 106 112 130 159 155 177 151 120 102 25 134 237 259 248 257 263 289 11 101 149 235 300 116 124 133 185 219 255 273 310 359 334 321
105 290 252 169 192 174 184 173 190 167 172 80 78 83 83 75 104 139 55 65 35 19 13 352 322 309 336 313 258 137 135 94 94 128 142 137 156 86 4 258 219 259 257 263 268 288 56 96 125 145 200 222 193 107 164 215 231 278 281 328 7 355 356
188 229 245 360 332 203 186 179 135 111 77 90 113 110 103 111 112 106 158 84 74 69 302 35 307 305 294 270 326 98 111 142 201 145 139 142 120 154 207 256 265 256 263 281 292 119 154 192 208 218 144 147 104 149 188 236 222 228 33 27 2 350 337
53 56 44 31 26 30 19 10 34 88 110 105 116 112 99 77 65 70 100 104 152 226 207 183 240 259 331 302 272 257 218 170 162 144 97 77 188 219 223 223 217 307 313 35 349 196 192 306 330 350 349 109 104 102 124 272 301 46 31 22 7 351 343
47 45 65 73 70 82 79 71 53 42 40 57 80 95 102 105 118 164 146 175 225 169 173 194 177 258 265 251 228 84 85 91 124 183 189 213 262 327 355 30 354 348 49 32 11 357 354 348 4 342 330 182 161 176 157 148 75 42 6 12 358 350 340
90 97 95 86 89 101 112 115 108 66 55 44 33 24 60 66 18 116 135 213 207 151 152 173 213 224 246 235 133 97 90 95 197 239 226 246 71 56 30 8 355 40 73 45 15 21 17 354 9 12 343 339 68 272 203 147 93 37 329 325 283 302 331
94 88 73 93 111 109 100 99 105 125 131 129 127 101 61 49 58 78 94 81 81 77 160 152 203 224 238 216 183 207 161 176 235 240 240 166 108 105 88 61 46 31 76 84 50 53 56 63 60 31 347 59 61 22 49 61 67 142 216 270 276 260 251
96 92 88 74 81 84 113 116 122 114 108 110 114 130 123 113 109 86 75 63 92 131 146 141 204 207 222 221 226 44 124 196 226 48 105 225 170 128 118 109 52 46 51 66 69 64 69 81 77 54 40 42 109 80 88 112 127 139 217 256 269 280 280
114 110 128 134 123 134 125 128 128 131 135 115 111 108 113 112 108 137 119 105 127 109 127 176 172 211 250 246 139 96 100 152 264 297 316 250 180 136 145 124 115 75 40 44 55 54 48 45 51 67 69 58 57 83 112 110 99 43 299 268 267 268 277